Pampa, TX

6:21 PM CDT on May 26, 2017 (GMT -0500)
Perry Lefors

Weather History for KPPA - April, 2013

Change the Weather History Date:

Monday, April 1, 2013

  Actual Average Record
Temperature  
Mean Temperature 48 °F -  
Max Temperature 63 °F 63 °F 90 °F (1971)
Min Temperature 33 °F 35 °F 26 °F (1977)
Degree Days  
Heating Degree Days 18    
Moisture  
Dew Point 38 °F    
Average Humidity 72    
Maximum Humidity 95    
Minimum Humidity 47    
Precipitation  
Precipitation 0.00 in - - ()
Sea Level Pressure  
Sea Level Pressure 30.05 in    
Wind  
Wind Speed 16 mph (East)    
Max Wind Speed 28 mph    
Max Gust Speed 31 mph    
Visibility 9 miles    
Events Rain , Thunderstorm    
Averages and records for this station are not official NWS values.
T = Trace of Precipitation, MM = Missing Value Source: NWS Daily Summary

Daily Weather History Graph

Daily Weather History Graph

Search for Another Location

Airport or City:

Trip Planner

Search our weather history database for the weather conditions in past years. The results will help you decide how hot, cold, wet, or windy it might be!

Date:

Astronomy

Apr. 01, 2013 Rise Set
Actual Time 7:30 AM CDT 8:05 PM CDT
Civil Twilight 7:04 AM CDT 8:31 PM CDT
Nautical Twilight 6:34 AM CDT 9:01 PM CDT
Astronomical Twilight 6:03 AM CDT 9:32 PM CDT
Moon 1:07 AM CDT (4/1) 11:27 AM CDT (4/1)
Length of Visible Light 13h 27m
Length of Day
12h 35m
Waning Gibbous, 67% of the Moon is Illuminated
Apr 1
Waning Gibbous
Apr 2
Last Quarter
Apr 10
New
Apr 18
First Quarter
Apr 25
Full

Hourly Weather History & Observations

Time (CDT) Temp. Windchill Dew Point Humidity Pressure Visibility Wind Dir Wind Speed Gust Speed Precip Events Conditions
12:15 AM 50.5 °F - 37.4 °F 61% 30.00 in 10.0 mi South 13.8 mph - N/A   Clear
12:35 AM 50.5 °F - 37.4 °F 61% 30.00 in 10.0 mi South 15.0 mph - N/A   Clear
12:55 AM 50.4 °F - 37.4 °F 61% 30.00 in 10.0 mi South 16.1 mph - N/A   Clear
1:15 AM 50.2 °F - 37.4 °F 62% 30.00 in 10.0 mi South 16.1 mph - N/A   Clear
1:35 AM 49.6 °F - 37.4 °F 63% 30.00 in 10.0 mi South 15.0 mph - N/A   Clear
1:55 AM 49.5 °F - 37.6 °F 64% 30.00 in 10.0 mi South 15.0 mph - N/A   Clear
2:15 AM 49.3 °F - 37.8 °F 65% 30.00 in 10.0 mi South 15.0 mph - N/A   Clear
2:35 AM 48.7 °F - 38.1 °F 67% 30.00 in 10.0 mi South 16.1 mph - N/A   Clear
3:15 AM 48.6 °F - 38.8 °F 69% 30.00 in 10.0 mi South 13.8 mph - N/A   Clear
3:35 AM 48.4 °F - 39.2 °F 71% 30.00 in 10.0 mi South 13.8 mph - N/A   Clear
3:55 AM 48.7 °F - 39.6 °F 71% 30.00 in 10.0 mi South 15.0 mph - N/A   Clear
4:15 AM 49.1 °F - 39.7 °F 70% 30.00 in 10.0 mi South 15.0 mph - N/A   Clear
4:35 AM 48.6 °F - 39.7 °F 72% 30.00 in 10.0 mi South 13.8 mph - N/A   Clear
5:15 AM 48.7 °F - 40.1 °F 72% 30.00 in 10.0 mi South 13.8 mph - N/A   Scattered Clouds
5:35 AM 49.5 °F - 40.3 °F 71% 30.01 in 10.0 mi South 13.8 mph - N/A   Scattered Clouds
6:15 AM 50.0 °F - 41.0 °F 71% 30.01 in 10.0 mi South 17.3 mph - N/A   Scattered Clouds
6:35 AM 50.5 °F - 41.0 °F 70% 30.01 in 10.0 mi South 18.4 mph - N/A   Scattered Clouds
7:15 AM 52.7 °F - 41.5 °F 66% 30.02 in 10.0 mi South 17.3 mph - N/A   Scattered Clouds
7:35 AM 52.9 °F - 41.5 °F 65% 30.02 in 10.0 mi South 20.7 mph - N/A   Scattered Clouds
7:55 AM 53.2 °F - 41.2 °F 64% 30.03 in 10.0 mi South 18.4 mph - N/A Thunderstorm Clear
8:15 AM 52.9 °F - 41.2 °F 64% 30.03 in 10.0 mi South 17.3 mph 23.0 mph N/A   Clear
8:35 AM 53.6 °F - 41.9 °F 65% 30.04 in 10.0 mi South 18.4 mph - N/A   Clear
9:15 AM 54.7 °F - 42.1 °F 62% 30.07 in 10.0 mi South 17.3 mph - N/A   Scattered Clouds
9:35 AM 54.5 °F - 42.8 °F 65% 30.09 in 10.0 mi WSW 12.7 mph - N/A Rain Light Rain
9:55 AM 55.2 °F - 42.6 °F 63% 30.09 in 10.0 mi WSW 11.5 mph - N/A   Mostly Cloudy
10:15 AM 56.5 °F - 43.3 °F 61% 30.07 in 10.0 mi WSW 18.4 mph 24.2 mph N/A   Mostly Cloudy
10:35 AM 54.7 °F - 43.9 °F 67% 30.07 in 10.0 mi SW 17.3 mph - N/A   Mostly Cloudy
10:55 AM 57.4 °F - 43.9 °F 61% 30.08 in 10.0 mi WSW 15.0 mph - N/A   Mostly Cloudy
11:15 AM 61.5 °F - 43.7 °F 52% 30.09 in 10.0 mi West 12.7 mph - N/A Thunderstorm Scattered Clouds
11:35 AM 57.9 °F - 39.9 °F 51% 30.10 in 10.0 mi NW 15.0 mph 20.7 mph N/A   Mostly Cloudy
12:15 PM 55.6 °F - 39.4 °F 55% 30.11 in 10.0 mi NNW 6.9 mph - N/A   Overcast
12:35 PM 57.2 °F - 40.1 °F 53% 30.10 in 10.0 mi NW 5.8 mph - N/A   Scattered Clouds
12:55 PM 59.0 °F - 40.5 °F 50% 30.09 in 10.0 mi North 5.8 mph - N/A   Clear
1:15 PM 59.5 °F - 41.4 °F 51% 30.08 in 10.0 mi North 3.5 mph - N/A   Clear
1:35 PM 62.8 °F - 42.4 °F 47% 30.09 in 10.0 mi NNW 5.8 mph - N/A   Scattered Clouds
1:55 PM 62.4 °F - 43.2 °F 49% 30.07 in 10.0 mi East 6.9 mph - N/A   Mostly Cloudy
2:15 PM 61.7 °F - 43.9 °F 52% 30.07 in 10.0 mi North 3.5 mph - N/A   Mostly Cloudy
2:35 PM 54.0 °F - 42.4 °F 65% 30.07 in 10.0 mi NNE 25.3 mph 31.1 mph N/A   Overcast
2:55 PM 49.8 °F - 40.3 °F 70% 30.08 in 10.0 mi NNE 25.3 mph - N/A   Overcast
3:15 PM 49.6 °F - 39.2 °F 67% 30.08 in 10.0 mi NE 24.2 mph - N/A   Overcast
3:35 PM 47.5 °F - 39.0 °F 72% 30.07 in 10.0 mi NE 24.2 mph 29.9 mph N/A   Overcast
3:55 PM 46.2 °F 37.7 °F 37.8 °F 72% 30.07 in 10.0 mi NE 25.3 mph - N/A   Overcast
4:15 PM 46.9 °F - 37.9 °F 71% 30.05 in 10.0 mi ENE 27.6 mph - N/A   Overcast
4:35 PM 46.6 °F - 37.4 °F 70% 30.05 in 10.0 mi NE 25.3 mph 31.1 mph N/A   Mostly Cloudy
4:55 PM 44.8 °F 35.9 °F 37.0 °F 74% 30.06 in 10.0 mi NE 24.2 mph - N/A   Mostly Cloudy
5:15 PM 43.0 °F 34.5 °F 36.0 °F 76% 30.07 in 10.0 mi NE 19.6 mph 28.8 mph N/A   Overcast
5:35 PM 40.8 °F 31.4 °F 35.4 °F 81% 30.06 in 7.0 mi NE 20.7 mph 26.5 mph N/A   Overcast
5:55 PM 39.6 °F 29.5 °F 34.9 °F 83% 30.06 in 7.0 mi NE 21.9 mph 25.3 mph N/A   Overcast
6:15 PM 39.0 °F 28.8 °F 34.9 °F 85% 30.05 in 7.0 mi NE 21.9 mph 25.3 mph N/A   Overcast
6:35 PM 38.5 °F 28.3 °F 35.1 °F 87% 30.05 in 5.0 mi NE 20.7 mph - N/A   Overcast
6:55 PM 37.6 °F 27.1 °F 33.8 °F 86% 30.05 in 5.0 mi NE 20.7 mph - N/A   Overcast
7:15 PM 36.1 °F 25.9 °F 32.9 °F 88% 30.05 in 5.0 mi NE 18.4 mph 25.3 mph N/A   Overcast
7:35 PM 35.8 °F 25.4 °F 33.3 °F 91% 30.05 in 4.0 mi ENE 18.4 mph 25.3 mph N/A   Overcast
7:55 PM 35.6 °F 25.2 °F 33.1 °F 91% 30.05 in 5.0 mi NE 18.4 mph - N/A   Overcast
8:15 PM 34.3 °F 23.2 °F 31.8 °F 90% 30.06 in 7.0 mi NE 19.6 mph - N/A   Overcast
8:35 PM 33.8 °F 22.8 °F 31.5 °F 91% 30.06 in 7.0 mi ENE 18.4 mph - N/A   Overcast
8:55 PM 33.4 °F 22.7 °F 31.5 °F 92% 30.07 in 7.0 mi ENE 17.3 mph - N/A   Overcast
9:15 PM 33.8 °F 23.2 °F 32.0 °F 93% 30.07 in 4.0 mi ENE 17.3 mph - N/A   Overcast
9:35 PM 34.2 °F 23.6 °F 32.4 °F 93% 30.07 in 2.5 mi ENE 17.3 mph - N/A   Overcast
9:55 PM 33.8 °F 23.5 °F 32.0 °F 93% 30.08 in 5.0 mi ENE 16.1 mph - N/A   Overcast
10:15 PM 33.4 °F 23.1 °F 31.8 °F 94% 30.09 in 5.0 mi ENE 16.1 mph - N/A   Overcast
10:35 PM 33.3 °F 23.2 °F 31.8 °F 94% 30.10 in 3.0 mi NE 15.0 mph - N/A   Overcast
10:55 PM 33.3 °F 23.2 °F 32.0 °F 95% 30.11 in 4.0 mi NE 15.0 mph - N/A   Overcast
11:15 PM 33.3 °F 23.2 °F 31.5 °F 93% 30.12 in 7.0 mi NE 15.0 mph - N/A   Overcast
11:35 PM 33.4 °F 23.5 °F 31.6 °F 93% 30.12 in 5.0 mi ENE 15.0 mph 20.7 mph N/A   Overcast
11:55 PM 33.8 °F 23.9 °F 32.0 °F 93% 30.12 in 5.0 mi ENE 15.0 mph - N/A   Overcast